Showing default

O3B FM3, 40079

Orbit data source: Space-Track

O3B FM3, 40079 is a payload satellite owned by O3B (JE) that was launched on Thu, 10 Jul 2014 UTC via a SOYUZ-ST-B launch vehicle from the French Guiana (FRGUI). Payloads include a variety of satellites, spacecraft, and rockets equipped with specific instruments for various scientific and technological missions. These include communications satellites like Starlink; space stations such as the ISS; scientific satellites like the Hubble; Earth observation satellites from companies like Planet Labs, Umbra, and HawkEye 360; GPS; miniature CubeSats for education and research; and military/defense satellites.

Loading next visibility...
O3B FM3 details
Identifier
40079, 2014-038A
Orbit
Active
Last TLE update19 hours ago
Origin
Flag of JEO3B (JE / O3B)
ManufacturerThales Alenia
MissionOperational Commercial Communications
Bus & MotorPRISMA?, LS-400 AOCS?
Mass700 kg wet, ~500 kg dry
Launch date (UTC)
2014-07-10 (10 years ago)
Launch vehicle
SOYUZ-ST-B
Launch site
French Guiana (FRGUI)
Object type
Payload
Rocket body
Debris
Shape & HBRTrap Box + 2 Pan, 12 m
Radar Cross Section21.980 m², Large (>1 m²)

Expand to show TLE details & history

TLE from 19 hours ago
0 O3B FM3
1 40079U 14038A   24361.20011737 -.00000013  00000-0  00000-0 0  9998
2 40079   0.0438 358.1408 0005142 273.4185  88.3834  5.00114793186131
Epoch: 2024-12-26T04:48Z
Definitive object data (Epoch: 2024-12-26T04:48:10.14Z)
Latitude0.00177°
Longitude-167.22513°
Altitude8,064.179 km
Speed5.254 km/s
True Right ascension00h 00m 00s
True Declination0° 00' 06"
Sunlit
Object was in daylight at TLE epoch
Visualization TLE readout
Latitude-0.02373°
Longitude161.18726°
Altitude8,060.273 km
Speed5.256 km/s
Apparent Right ascension21h 22m 03s
Apparent Declination-22° 32' 26"
Sunlit
Object is in daylight
Visualization observer readout
Local Sidereal Time22:57:38
Azimuth204.113° SW
Elevation23.684°
Doppler factor1
Orbital elements
Apogee altitude8,076.391 km
Perigee altitude8,061.534 km
Semi-major axis14,447.099 km
Eccentricity0.0005142
Inclination0.0438°
RAAN358.1408°
Arg. of periapsis273.4185°
True anomaly88.4423°
Mean anomaly88.3834°
Eccentric anomaly88.41285°
Mean motion1.24989 °/min
BSTARUnknown
Orbital period288.03 mins
Loading maneuver chart data...
Loading historical data...
Loading historical data...
Loading historical data...
Loading historical data...
Loading historical data...
Loading historical data...
Loading historical data...
Other satellites on launch #38 in the year 2014 (2014-07-10 UTC)

O3B FM3 Visibility forecast

Observer location: undefined°, undefined

Span
Click to sort rows by Start time (UTC) header in descending order
Start Az.
Max El. time (UTC)
Max El. Az.
Max El.
End time (UTC)
End Az.
56 mins2024-12-26 23:34:17.522Z204.088° SW2024-12-26 23:50:17.522Z179.981° S24.36°2024-12-27 00:30:17.522Z127.338° SE
79 mins2024-12-27 05:11:17.522Z231.661° WSW2024-12-27 05:50:17.522Z180.05° SSW24.427°2024-12-27 06:30:17.522Z127.416° SE
79 mins2024-12-27 11:11:17.522Z231.752° WSW2024-12-27 11:50:17.522Z180.162° SSW24.38°2024-12-27 12:30:17.522Z127.481° SE
78 mins2024-12-27 17:12:17.522Z230.724° WSW2024-12-27 17:50:17.522Z180.095° SSW24.313°2024-12-27 18:30:17.522Z127.404° SE
23 mins2024-12-27 23:11:17.522Z231.638° WSW2024-12-27 23:34:17.522Z204.092° SW21.852°2024-12-27 23:34:17.522Z204.092° SW
|